Adventure of The Seas — C6SA3 — position and weather

sailwx.info

Track history (hours):
 
Tides and Currents Weather Stations Pressure Air Temp Water Temp Dewpoint Dewpoint Depression Visibility Wind Speed Wind Dir Waves Ship Positions

Adventure of The Seas

Operator: Royal Caribbean Cruises Ltd

Last reported at 2014-Jul-28 11:21 UTC. Time now 2014-Jul-28 12:18 UTC.
Position N 44°25' E 008°55'.

Type: Passenger vessel. MMSI: 311263000.

Date/timePositionNaut miles runAvg speedWind from/ knotsBaromVisibWave heightAir tempDewpointWater temp
2014-Jul-28 11:21N 44°25' E 008°55'0 0.0
2014-Jul-28 10:15N 44°25' E 008°55'0 0.0
2014-Jul-28 09:15N 44°25' E 008°55'0 0.0
2014-Jul-28 08:27N 44°25' E 008°55'0 0.0
2014-Jul-28 07:33N 44°25' E 008°55'0 0.0
2014-Jul-28 06:33N 44°25' E 008°55'0 0.0
2014-Jul-28 05:27N 44°25' E 008°55'0 0.4
2014-Jul-28 04:32N 44°24' E 008°55'6 5.9
2014-Jul-28 03:33N 44°19' E 008°59'8 8.4
2014-Jul-28 02:33N 44°12' E 009°03'8 8.2
2014-Jul-28 01:33N 44°04' E 009°07'8 8.1
2014-Jul-28 00:34N 43°57' E 009°12'8 7.6
2014-Jul-27 23:33N 43°53' E 009°21'8 7.5
2014-Jul-27 22:33N 43°49' E 009°30'8 7.6
2014-Jul-27 21:33N 43°43' E 009°37'8 7.6
2014-Jul-27 20:33N 43°37' E 009°43'7 7.3
2014-Jul-27 19:33N 43°32' E 009°51'8 7.7
2014-Jul-27 18:34N 43°30' E 010°01'8 7.5
2014-Jul-27 17:33N 43°31' E 010°11'6 5.2
2014-Jul-27 16:28N 43°33' E 010°18'0 0.0
2014-Jul-27 15:31N 43°33' E 010°18'0 0.0
2014-Jul-27 14:31N 43°33' E 010°18'0 0.0
2014-Jul-27 13:31N 43°33' E 010°18'0 0.0
2014-Jul-27 12:31N 43°33' E 010°18'0 0.0
2014-Jul-27 11:28N 43°33' E 010°18'0 0.0
2014-Jul-27 10:31N 43°33' E 010°18'0 0.0
2014-Jul-27 09:31N 43°33' E 010°18'0 0.0
2014-Jul-27 08:31N 43°33' E 010°18'0 0.0
2014-Jul-27 07:31N 43°33' E 010°18'0 0.0
2014-Jul-27 06:31N 43°33' E 010°18'0 0.0
2014-Jul-27 05:25N 43°33' E 010°18'0 0.0
2014-Jul-27 04:33N 43°33' E 010°18'7 6.8
2014-Jul-27 03:33N 43°27' E 010°14'1211.7
2014-Jul-27 02:34N 43°16' E 010°18'1211.7
2014-Jul-27 01:33N 43°05' E 010°23'61 2.6
2014-Jul-26 02:15N 42°09' E 010°59'1318.7
2014-Jul-26 01:33N 42°17' E 010°45'2019.2
2014-Jul-26 00:31N 42°30' E 010°25'5418.2
2014-Jul-25 21:33N 43°09' E 009°34'1817.8
2014-Jul-25 20:33N 43°19' E 009°13'7619.1
2014-Jul-25 16:33N 43°37' E 007°31'10 9.0
2014-Jul-25 15:28N 43°41' E 007°19'0 0.1
2014-Jul-25 14:28N 43°42' E 007°19'0 0.0
2014-Jul-25 13:28N 43°41' E 007°19'0 0.0
2014-Jul-25 12:22N 43°42' E 007°19'0 0.1
2014-Jul-25 11:16N 43°41' E 007°19'0 0.0
2014-Jul-25 10:28N 43°41' E 007°19'0 0.0
2014-Jul-25 09:16N 43°41' E 007°19'0 0.0
2014-Jul-25 08:28N 43°41' E 007°19'0 0.0
2014-Jul-25 07:23N 43°41' E 007°19'810.1
2014-Jul-25 06:33N 43°34' E 007°13'1918.7
2014-Jul-25 05:33N 43°19' E 006°59'1918.7
2014-Jul-25 04:33N 43°04' E 006°42'1918.9
2014-Jul-25 03:33N 42°51' E 006°25'1919.2
2014-Jul-25 02:33N 42°36' E 006°08'2019.4
2014-Jul-25 01:32N 42°23' E 005°47'2121.0
2014-Jul-25 00:33N 42°09' E 005°26'2018.0
2014-Jul-24 23:27N 41°56' E 005°07'1719.3
2014-Jul-24 22:33N 41°45' E 004°50'2319.8
2014-Jul-24 21:24N 41°30' E 004°26'1821.1
2014-Jul-24 20:32N 41°18' E 004°07'2020.2
2014-Jul-24 19:33N 41°05' E 003°48'2121.3
2014-Jul-24 18:33N 40°51' E 003°27'2120.8
2014-Jul-24 17:33N 40°37' E 003°06'1919.3
2014-Jul-24 16:33N 40°25' E 002°47'2019.9
2014-Jul-24 15:33N 40°12' E 002°27'2121.5
2014-Jul-24 14:33N 39°58' E 002°06'2121.0
2014-Jul-24 13:33N 39°44' E 001°45'2221.9
2014-Jul-24 12:33N 39°29' E 001°24'2221.7
2014-Jul-24 11:33N 39°15' E 001°03'4720.8
2014-Jul-24 09:17N 38°38' E 000°25'1520.4
2014-Jul-24 08:33N 38°26' E 000°14'2520.6
2014-Jul-24 07:21N 38°05' W 000°03'1620.5
2014-Jul-24 06:33N 37°51' W 000°14'1919.1
2014-Jul-24 05:33N 37°35' W 000°27'1919.4
2014-Jul-24 04:33N 37°21' W 000°44'2019.8
2014-Jul-24 03:33N 37°08' W 001°02'21719.4
2014-Jul-23 16:22N 36°05' W 005°21'78 6.6
2014-Jul-23 04:33N 36°04' W 006°57'1818.5
2014-Jul-23 03:33N 36°08' W 007°19'1918.9
2014-Jul-23 02:33N 36°13' W 007°42'1818.2
2014-Jul-23 01:33N 36°18' W 008°04'1818.2
2014-Jul-23 00:33N 36°23' W 008°26'1818.0
2014-Jul-22 23:33N 36°27' W 008°48'1817.9
2014-Jul-22 22:33N 36°31' W 009°09'1717.2
2014-Jul-22 21:33N 36°41' W 009°27'1717.4
2014-Jul-22 20:33N 36°57' W 009°35'1818.5
2014-Jul-22 19:33N 37°15' W 009°39'1919.4
2014-Jul-22 18:33N 37°34' W 009°45'1919.3
2014-Jul-22 17:33N 37°53' W 009°51'1918.7
2014-Jul-22 16:33N 38°11' W 009°56'80617.8
2014-Jul-20 19:20N 50°16' W 001°44'1620.1
2014-Jul-20 18:33N 50°23' W 001°22'2322.8
2014-Jul-20 17:33N 50°40' W 000°58'1110.6
2014-Jul-20 16:33N 50°46' W 001°13'1010.1
2014-Jul-20 15:33N 50°53' W 001°24'1 1.2
2014-Jul-20 14:32N 50°54' W 001°25'0 0.0
2014-Jul-20 13:32N 50°54' W 001°25'0 0.0
2014-Jul-20 12:30N 50°54' W 001°25'0 0.0
2014-Jul-20 11:24N 50°54' W 001°25'0 0.0
2014-Jul-20 10:27N 50°54' W 001°25'0 0.0
2014-Jul-20 09:33N 50°54' W 001°25'0 0.0
2014-Jul-20 08:33N 50°54' W 001°25'0 0.0
2014-Jul-20 07:33N 50°54' W 001°25'0 0.0
2014-Jul-20 06:30N 50°54' W 001°25'0 0.0
2014-Jul-20 05:30N 50°54' W 001°25'0 0.0
2014-Jul-20 04:32N 50°54' W 001°25'1 1.2
2014-Jul-20 03:33N 50°53' W 001°24'10 9.6
2014-Jul-20 02:33N 50°46' W 001°14'1212.3
2014-Jul-20 01:33N 50°38' W 000°59'4016.1
2014-Jul-19 23:05N 50°06' W 001°37'  
Track history (hours):
 
Tides and Currents Weather Stations Pressure Air Temp Water Temp Dewpoint Dewpoint Depression Visibility Wind Speed Wind Dir Waves Ship Positions

Adventure of The Seas

Operator: Royal Caribbean Cruises Ltd

Last reported at 2014-Jul-28 11:21 UTC. Time now 2014-Jul-28 12:18 UTC.
Position N 44°25' E 008°55'.

Type: Passenger vessel. MMSI: 311263000.

Date/timePositionNaut miles runAvg speedWind from/ knotsBaromVisibWave heightAir tempDewpointWater temp
2014-Jul-28 11:21N 44°25' E 008°55'0 0.0
2014-Jul-28 10:15N 44°25' E 008°55'0 0.0
2014-Jul-28 09:15N 44°25' E 008°55'0 0.0
2014-Jul-28 08:27N 44°25' E 008°55'0 0.0
2014-Jul-28 07:33N 44°25' E 008°55'0 0.0
2014-Jul-28 06:33N 44°25' E 008°55'0 0.0
2014-Jul-28 05:27N 44°25' E 008°55'0 0.4
2014-Jul-28 04:32N 44°24' E 008°55'6 5.9
2014-Jul-28 03:33N 44°19' E 008°59'8 8.4
2014-Jul-28 02:33N 44°12' E 009°03'8 8.2
2014-Jul-28 01:33N 44°04' E 009°07'8 8.1
2014-Jul-28 00:34N 43°57' E 009°12'8 7.6
2014-Jul-27 23:33N 43°53' E 009°21'8 7.5
2014-Jul-27 22:33N 43°49' E 009°30'8 7.6
2014-Jul-27 21:33N 43°43' E 009°37'8 7.6
2014-Jul-27 20:33N 43°37' E 009°43'7 7.3
2014-Jul-27 19:33N 43°32' E 009°51'8 7.7
2014-Jul-27 18:34N 43°30' E 010°01'8 7.5
2014-Jul-27 17:33N 43°31' E 010°11'6 5.2
2014-Jul-27 16:28N 43°33' E 010°18'0 0.0
2014-Jul-27 15:31N 43°33' E 010°18'0 0.0
2014-Jul-27 14:31N 43°33' E 010°18'0 0.0
2014-Jul-27 13:31N 43°33' E 010°18'0 0.0
2014-Jul-27 12:31N 43°33' E 010°18'0 0.0
2014-Jul-27 11:28N 43°33' E 010°18'0 0.0
2014-Jul-27 10:31N 43°33' E 010°18'0 0.0
2014-Jul-27 09:31N 43°33' E 010°18'0 0.0
2014-Jul-27 08:31N 43°33' E 010°18'0 0.0
2014-Jul-27 07:31N 43°33' E 010°18'0 0.0
2014-Jul-27 06:31N 43°33' E 010°18'0 0.0
2014-Jul-27 05:25N 43°33' E 010°18'0 0.0
2014-Jul-27 04:33N 43°33' E 010°18'7 6.8
2014-Jul-27 03:33N 43°27' E 010°14'1211.7
2014-Jul-27 02:34N 43°16' E 010°18'1211.7
2014-Jul-27 01:33N 43°05' E 010°23'61 2.6
2014-Jul-26 02:15N 42°09' E 010°59'1318.7
2014-Jul-26 01:33N 42°17' E 010°45'2019.2
2014-Jul-26 00:31N 42°30' E 010°25'5418.2
2014-Jul-25 21:33N 43°09' E 009°34'1817.8
2014-Jul-25 20:33N 43°19' E 009°13'7619.1
2014-Jul-25 16:33N 43°37' E 007°31'10 9.0
2014-Jul-25 15:28N 43°41' E 007°19'0 0.1
2014-Jul-25 14:28N 43°42' E 007°19'0 0.0
2014-Jul-25 13:28N 43°41' E 007°19'0 0.0
2014-Jul-25 12:22N 43°42' E 007°19'0 0.1
2014-Jul-25 11:16N 43°41' E 007°19'0 0.0
2014-Jul-25 10:28N 43°41' E 007°19'0 0.0
2014-Jul-25 09:16N 43°41' E 007°19'0 0.0
2014-Jul-25 08:28N 43°41' E 007°19'0 0.0
2014-Jul-25 07:23N 43°41' E 007°19'810.1
2014-Jul-25 06:33N 43°34' E 007°13'1918.7
2014-Jul-25 05:33N 43°19' E 006°59'1918.7
2014-Jul-25 04:33N 43°04' E 006°42'1918.9
2014-Jul-25 03:33N 42°51' E 006°25'1919.2
2014-Jul-25 02:33N 42°36' E 006°08'2019.4
2014-Jul-25 01:32N 42°23' E 005°47'2121.0
2014-Jul-25 00:33N 42°09' E 005°26'2018.0
2014-Jul-24 23:27N 41°56' E 005°07'1719.3
2014-Jul-24 22:33N 41°45' E 004°50'2319.8
2014-Jul-24 21:24N 41°30' E 004°26'1821.1
2014-Jul-24 20:32N 41°18' E 004°07'2020.2
2014-Jul-24 19:33N 41°05' E 003°48'2121.3
2014-Jul-24 18:33N 40°51' E 003°27'2120.8
2014-Jul-24 17:33N 40°37' E 003°06'1919.3
2014-Jul-24 16:33N 40°25' E 002°47'2019.9
2014-Jul-24 15:33N 40°12' E 002°27'2121.5
2014-Jul-24 14:33N 39°58' E 002°06'2121.0
2014-Jul-24 13:33N 39°44' E 001°45'2221.9
2014-Jul-24 12:33N 39°29' E 001°24'2221.7
2014-Jul-24 11:33N 39°15' E 001°03'4720.8
2014-Jul-24 09:17N 38°38' E 000°25'1520.4
2014-Jul-24 08:33N 38°26' E 000°14'2520.6
2014-Jul-24 07:21N 38°05' W 000°03'1620.5
2014-Jul-24 06:33N 37°51' W 000°14'1919.1
2014-Jul-24 05:33N 37°35' W 000°27'1919.4
2014-Jul-24 04:33N 37°21' W 000°44'2019.8
2014-Jul-24 03:33N 37°08' W 001°02'21719.4
2014-Jul-23 16:22N 36°05' W 005°21'78 6.6
2014-Jul-23 04:33N 36°04' W 006°57'1818.5
2014-Jul-23 03:33N 36°08' W 007°19'1918.9
2014-Jul-23 02:33N 36°13' W 007°42'1818.2
2014-Jul-23 01:33N 36°18' W 008°04'1818.2
2014-Jul-23 00:33N 36°23' W 008°26'1818.0
2014-Jul-22 23:33N 36°27' W 008°48'1817.9
2014-Jul-22 22:33N 36°31' W 009°09'1717.2
2014-Jul-22 21:33N 36°41' W 009°27'1717.4
2014-Jul-22 20:33N 36°57' W 009°35'1818.5
2014-Jul-22 19:33N 37°15' W 009°39'1919.4
2014-Jul-22 18:33N 37°34' W 009°45'1919.3
2014-Jul-22 17:33N 37°53' W 009°51'1918.7
2014-Jul-22 16:33N 38°11' W 009°56'80617.8
2014-Jul-20 19:20N 50°16' W 001°44'1620.1
2014-Jul-20 18:33N 50°23' W 001°22'2322.8
2014-Jul-20 17:33N 50°40' W 000°58'1110.6
2014-Jul-20 16:33N 50°46' W 001°13'1010.1
2014-Jul-20 15:33N 50°53' W 001°24'1 1.2
2014-Jul-20 14:32N 50°54' W 001°25'0 0.0
2014-Jul-20 13:32N 50°54' W 001°25'0 0.0
2014-Jul-20 12:30N 50°54' W 001°25'0 0.0
2014-Jul-20 11:24N 50°54' W 001°25'0 0.0
2014-Jul-20 10:27N 50°54' W 001°25'0 0.0
2014-Jul-20 09:33N 50°54' W 001°25'0 0.0
2014-Jul-20 08:33N 50°54' W 001°25'0 0.0
2014-Jul-20 07:33N 50°54' W 001°25'0 0.0
2014-Jul-20 06:30N 50°54' W 001°25'0 0.0
2014-Jul-20 05:30N 50°54' W 001°25'0 0.0
2014-Jul-20 04:32N 50°54' W 001°25'1 1.2
2014-Jul-20 03:33N 50°53' W 001°24'10 9.6
2014-Jul-20 02:33N 50°46' W 001°14'1212.3
2014-Jul-20 01:33N 50°38' W 000°59'4016.1
2014-Jul-19 23:05N 50°06' W 001°37'  

Dump ship's entire track history